Weather History for Toledo, OH

Change the Weather History Date:

Monday, April 14, 2014

  Actual Average Record
Temperature  
Mean Temperature 52 °F 49 °F  
Max Temperature 71 °F 60 °F 83 °F (1941)
Min Temperature 32 °F 38 °F 20 °F (1973)
Degree Days  
Heating Degree Days 13 16  
Month to date heating degree days 229 262  
Since 1 July heating degree days 6673 5688  
Cooling Degree Days 0 0  
Month to date cooling degree days 2 0  
Year to date cooling degree days 2 0  
Growing Degree Days 2 (Base 50)    
Moisture  
Dew Point 45 °F    
Average Humidity 72    
Maximum Humidity 100    
Minimum Humidity 44    
Precipitation  
Precipitation 0.19 in 0.11 in 1.03 in (2009)
Month to date precipitation 2.07 1.48  
Year to date precipitation 10.64 8.08  
Snow  
Snow T in 0.00 in - ()
Month to date snowfall T 0.9  
Since 1 July snowfall 85.3 37.1  
Snow Depth 0.00 in    
Sea Level Pressure  
Sea Level Pressure 29.64 in    
Wind  
Wind Speed 15 mph (West)    
Max Wind Speed 33 mph    
Max Gust Speed 46 mph    
Visibility 10 miles    
Events Rain , Snow    
T = Trace of Precipitation, MM = Missing Value Source: NWS Daily Summary

Daily Weather History Graph

Daily Weather History Graph

Search for Another Location

Airport:

Trip Planner

Search our weather history database for the weather conditions in past years. The results will help you decide how hot, cold, wet, or windy it might be!

Date:

Astronomy

Apr. 14, 2014 Rise Set
Actual Time 6:56 AM EDT 8:14 PM EDT
Civil Twilight 6:28 AM EDT 8:43 PM EDT
Nautical Twilight 5:53 AM EDT 9:18 PM EDT
Astronomical Twilight 5:17 AM EDT 9:54 PM EDT
Moon 7:52 PM EDT (4/14) 6:29 AM EDT (4/14)
Length of Visible Light 14h 15m
Length of Day
13h 17m
Full, 100% of the Moon is Illuminated
Apr 14
Full
Apr 15
Full
Apr 22
Last Quarter
Apr 29
New
May 6
First Quarter

Hourly Weather History & Observations

Time (EDT) Temp. Windchill Dew Point Humidity Pressure Visibility Wind Dir Wind Speed Gust Speed Precip Events Conditions
12:52 AM 70.0 °F - 46.9 °F 44% 29.62 in 10.0 mi South 15.0 mph 19.6 mph N/A   Clear
1:52 AM 70.0 °F - 46.0 °F 42% 29.59 in 10.0 mi SSW 9.2 mph 21.9 mph N/A   Clear
2:52 AM 68.0 °F - 46.9 °F 47% 29.57 in 10.0 mi South 9.2 mph 23.0 mph N/A   Clear
3:52 AM 68.0 °F - 46.0 °F 45% 29.54 in 10.0 mi South 15.0 mph 21.9 mph N/A   Clear
4:52 AM 69.8 °F - 48.2 °F 46% 29.53 in 10.0 mi South 15.0 mph 25.3 mph N/A   Scattered Clouds
5:52 AM 70.0 °F - 48.9 °F 47% 29.47 in 10.0 mi South 17.3 mph 31.1 mph N/A   Mostly Cloudy
6:52 AM 70.0 °F - 50.0 °F 49% 29.47 in 10.0 mi SSW 20.7 mph 31.1 mph N/A   Overcast
7:52 AM 66.0 °F - 51.1 °F 59% 29.52 in 10.0 mi SSW 23.0 mph 34.5 mph 0.00 in Rain Light Rain
8:44 AM 60.8 °F - 55.4 °F 82% 29.55 in 10.0 mi SSW 15.0 mph 27.6 mph 0.00 in Rain Light Rain
8:52 AM 60.1 °F - 55.9 °F 86% 29.55 in 10.0 mi SSW 19.6 mph 29.9 mph 0.00 in   Overcast
9:52 AM 63.0 °F - 57.0 °F 81% 29.55 in 10.0 mi SW 20.7 mph 34.5 mph 0.00 in   Mostly Cloudy
9:59 AM 62.6 °F - 57.2 °F 82% 29.55 in 10.0 mi SSW 17.3 mph 29.9 mph N/A   Mostly Cloudy
10:52 AM 62.1 °F - 57.0 °F 84% 29.55 in 10.0 mi SW 18.4 mph 27.6 mph 0.00 in Rain Light Rain
11:40 AM 60.8 °F - 55.4 °F 82% 29.57 in 10.0 mi WSW 18.4 mph 29.9 mph 0.00 in   Overcast
11:52 AM 62.1 °F - 55.9 °F 80% 29.57 in 10.0 mi WSW 18.4 mph - 0.00 in   Mostly Cloudy
12:52 PM 59.0 °F - 50.0 °F 72% 29.60 in 10.0 mi West 18.4 mph 31.1 mph N/A   Overcast
1:52 PM 55.4 °F - 44.6 °F 67% 29.64 in 10.0 mi West 20.7 mph 26.5 mph N/A   Overcast
2:52 PM 52.0 °F - 42.1 °F 69% 29.66 in 10.0 mi West 13.8 mph - N/A   Overcast
3:52 PM 51.1 °F - 37.9 °F 61% 29.66 in 10.0 mi West 18.4 mph 24.2 mph N/A   Overcast
4:52 PM 48.2 °F - 37.4 °F 66% 29.69 in 10.0 mi WNW 11.5 mph - N/A   Overcast
5:52 PM 48.9 °F - 37.0 °F 64% 29.69 in 10.0 mi West 10.4 mph - 0.00 in   Overcast
6:52 PM 48.0 °F - 37.0 °F 66% 29.70 in 10.0 mi NW 9.2 mph - N/A   Overcast
7:31 PM 44.6 °F 40.2 °F 39.2 °F 81% 29.71 in 10.0 mi NW 8.1 mph - 0.00 in Rain Light Rain
7:52 PM 45.0 °F 40.1 °F 37.9 °F 76% 29.72 in 10.0 mi NNW 9.2 mph - 0.00 in Rain Light Rain
8:52 PM 43.0 °F 38.8 °F 39.0 °F 86% 29.74 in 10.0 mi WNW 6.9 mph - 0.00 in   Overcast
9:14 PM 42.8 °F 37.5 °F 39.2 °F 87% 29.76 in 8.0 mi WNW 9.2 mph - 0.00 in Rain Light Rain
9:19 PM 42.8 °F 38.0 °F 39.2 °F 87% 29.76 in 8.0 mi WNW 8.1 mph - 0.00 in Rain Light Rain
9:45 PM 41.0 °F 35.8 °F 39.2 °F 93% 29.75 in 8.0 mi NW 8.1 mph - 0.02 in Rain Light Rain
9:52 PM 41.0 °F 36.4 °F 39.9 °F 96% 29.76 in 7.0 mi WNW 6.9 mph - 0.03 in Rain Light Rain
10:52 PM 39.9 °F 32.1 °F 39.0 °F 97% 29.77 in 10.0 mi NW 13.8 mph - 0.01 in Rain Light Rain
11:23 PM 37.4 °F 28.2 °F 35.6 °F 93% 29.76 in 9.0 mi NNW 16.1 mph - 0.06 in Rain Rain
11:44 PM 37.4 °F 26.9 °F 33.8 °F 87% 29.76 in 7.0 mi NNW 20.7 mph 31.1 mph 0.10 in Snow Light Snow
11:52 PM 35.1 °F 24.5 °F 33.1 °F 92% 29.78 in 5.0 mi NW 18.4 mph 31.1 mph 0.11 in Snow Light Snow